{"data":{"norad_id":67221,"epoch":"2026-09-20T03:22:21.188064Z","epoch_age_seconds":137159,"freshness":"FRESH","line1":"1 67221U 25305C   26263.14052301  .00002261  00000+0  15353-3 0  9998","line2":"2 67221  45.0051 299.6182 0006470 328.6203  31.4286 15.09622703 41669","mean_motion":15.09622703,"eccentricity":0.000647,"inclination_deg":45.0051,"raan_deg":299.6182,"arg_perigee_deg":328.6203,"mean_anomaly_deg":31.4286,"bstar":0.00015353,"rev_number":4166,"period_min":95.388072605053,"perigee_km":532.87769135898,"apogee_km":541.82633414147,"semimajor_km":6915.4890127502,"source":"CELESTRAK","updated_at":"2026-09-21T09:00:16.505139Z"}}